Regional Weather Roundup
Issued by NWS

Home | Current Version | Previous Version | Text Only | Print | Product List | Glossary Off
Versions: 1 2 3 4 5 6 7 8 9 10 11 12 13 14 15 16 17 18 19 20 21 22 23 24 25 26 27 28 29 30 31 32 33 34 35 36 37 38 39 40 41 42 43 44 45 46 47 48 49 50

938
ASUS45 KTFX 240110
RWRMT
MONTANA REGIONAL WEATHER ROUNDUP
NATIONAL WEATHER SERVICE GREAT FALLS MT
600 PM MST FRI FEB 23 2018

NOTE: "FAIR" INDICATES FEW OR NO CLOUDS BELOW 12000 FEET WITH NO
SIGNIFICANT WEATHER AND/OR OBSTRUCTIONS TO VISIBILITY.

MTZ001>007-043-240200-
WEST OF THE DIVIDE

CITY           SKY/WX    TMP DP  RH WIND       PRES   REMARKS
KALISPELL      CLOUDY    18  12  77 S3        30.08F
MISSOULA       CLOUDY    23   8  52 NW10      30.10S WCI  12
BUTTE          FAIR      16   3  56 NW3       29.90S
MULLAN PASS    SNOW       7   6  96 VRB3      29.93S VSB 1/2
ANACONDA         N/A     10   1  67 NW5       29.96R
DEER LODGE       N/A     12   3  67 W3        29.99S
HAMILTON         N/A     23   3  42 MISG      30.09S
PLAINS           N/A     25   8  48 SW5       30.14F
RONAN            N/A     18   9  68 S6        30.13S WCI   9
$$

MTZ008-052>055-240200-
SOUTHWEST MONTANA

CITY           SKY/WX    TMP DP  RH WIND       PRES   REMARKS
BOZEMAN        FAIR       9   3  77 E5        29.94S
DILLON         FAIR       9   5  84 S12       29.94R WCI  -6
ENNIS          PTCLDY    19   1  45 S12       29.95S WCI   7
W YELLOWSTONE  FAIR      14   7  73 SW9G17    29.89R WCI   2
THREE FORKS      N/A     15   5  64 CALM      29.94F
TWIN BRIDGES     N/A     17   0  47 CALM      29.95F
$$

MTZ009-010-012-014-046-048-049-054-240200-
EAST SLOPES AND CENTRAL MONTANA

CITY           SKY/WX    TMP DP  RH WIND       PRES   REMARKS
CUT BANK       FAIR      15   9  76 W30G38    29.73S HAZE    WCI  -5
GREAT FALLS    FAIR      18   7  62 SW22      29.82R WCI   1
MALMSTROM AFB  FAIR      19  10  66 SW25      29.84S WCI   2
HELENA         FAIR      23   7  50 SW10      29.95R WCI  12
AUGUSTA        SNOWSHWR  15   8  74 W32G41    29.77S FOG     WCI  -7
BOWMANS CRNR   FAIR      14   7  72 SW23      29.80R WCI  -5
CHOTEAU          N/A     18   7  62 W20       29.77R WCI   1
FAIRFIELD      FAIR      17   7  64 SW22      29.78S WCI  -1
POWER          FAIR      14   7  72 SW20      29.79S WCI  -3
RAYNESFORD     FAIR      22   4  47 W15G25    29.82R WCI   9
ULM            FAIR      19   8  63 SW24      29.84S WCI   1
WHITE SULPHUR    N/A     16   5  62 S17G26    29.82  WCI   0
$$

MTZ011-013-016-021-045-047-050-051-240200-
NORTH CENTRAL MONTANA

CITY           SKY/WX    TMP DP  RH WIND       PRES   REMARKS
HAVRE          FAIR      16   9  74 SW20      29.82F WCI  -1
LEWISTOWN      FAIR      19   9  65 SW23      29.80S WCI   2
N BAR RANCH    FAIR      23   0  36 W15G21    29.81S WCI  10
CHINOOK          N/A      1  -4  78 E9        29.87S WCI -14
GEYSER         FAIR      20   6  56 W21G28    29.78S WCI   4
STANFORD       FAIR      19   2  47 W18G24    29.78R WCI   3
WINIFRED       FAIR      18   9  67 SW9       29.82R WCI   7
$$

MTZ017>020-022>027-061-062-240200-
NORTHEAST MONTANA

CITY           SKY/WX    TMP DP  RH WIND       PRES   REMARKS
GLASGOW        FAIR       0  -6  76 SE13      29.93F WCI -18
GLENDIVE       FAIR       3  -3  76 S13       30.02F WCI -14
JORDAN           N/A      4  -3  73 CALM      29.93F
MALTA          CLEAR     -6 -11  77 NE6       29.90F WCI -18
SIDNEY         FAIR       4  -3  73 S7        30.06F WCI  -8
WOLF POINT     FAIR       2  -5  72 CALM      30.00F
PLENTYWOOD       N/A      7   1  78 S10       29.99S WCI  -8
POPLAR           N/A      9  -2  61 CALM      30.01F
SCOBEY           N/A      4  -6  63 CALM      29.93S
$$

MTZ028>42-056>058-240200-
SOUTHCENTRAL AND SOUTHEAST MONTANA

CITY           SKY/WX    TMP DP  RH WIND       PRES   REMARKS
BAKER          FAIR       5  -1  76 SE13      30.01F WCI -12
BILLINGS       FAIR      20   7  57 SW13      29.92S WCI   7
LIVINGSTON     FAIR      21   8  57 SW16      29.86F WCI   7
MILES CITY     FAIR       4  -2  76 S15       30.00F WCI -14
BIG TIMBER     CLEAR     19   9  63 SW20      29.87F WCI   4
EKALAKA          N/A     16  -4  40 SE20      29.94F WCI  -1
FORSYTH          N/A      9   1  72 E6        29.97F WCI  -1
HARLOWTON      FAIR      19   6  56 SW10      29.84F WCI   8
LAUREL           N/A     16   7  67 SW15      29.94S WCI   1
$$

REGIONAL REPORTS...DAKOTAS

CITY           SKY/WX    TMP DP  RH WIND       PRES   REMARKS
WILLISTON      FAIR      11   1  64 S9        30.05F WCI  -2
MINOT          FAIR      11   4  73 S8        30.10F WCI  -1
DICKINSON      FAIR       8  -2  63 S12       30.03F WCI  -7
BEACH          FAIR       7   0  72 S13       30.05F WCI  -9
CROSBY         FAIR       9   3  78 S16       30.03F WCI  -9
TIOGA          FAIR       5   3  92 S7        30.04F WCI  -7
WATFORD CITY   FAIR       9   1  72 CALM      30.04F
BISMARCK       FAIR      13   5  70 CALM      30.19S
GRAND FORKS    FAIR       7   2  80 SW8       30.23R WCI  -6
FARGO          FAIR       7   3  84 SW7       30.27R WCI  -5
BUFFALO SD       N/A      4  -3  73 SE7       29.99F WCI  -8
RAPID CITY     FAIR      11   2  67 E9        30.07F WCI  -2
$$

REGIONAL REPORTS...WYOMING/IDAHO/WASHINGTON

CITY           SKY/WX    TMP DP  RH WIND       PRES   REMARKS
GILLETTE       FAIR      16   6  65 S17       29.93R WCI   0
SHERIDAN       FAIR       5  -2  72 CALM      29.94F
BUFFALO WY     FAIR      16   6  65 S5        29.89S
CODY           FAIR      14   7  73 SW3       29.89F
YELLOWSTONE LA   N/A      9   0  67 CALM      29.87
IDAHO FALLS    LGT SNOW  18  12  77 SW20      30.09R WCI   2
SALMON         FAIR      23  11  60 NW5       30.07S
BOISE          FAIR      29   9  43 N6        30.25S WCI  23
SPOKANE        LGT SNOW  22  18  85 SW16      30.17F FOG     WCI   8
$$

REGIONAL REPORTS...ALBERTA

CITY           SKY/WX    TMP DP  RH WIND       PRES   REMARKS
CALGARY        CLOUDY    27   5  39 W24G37    29.59S WCI  12
CARDSTON         N/A     21   9  58 W16G24      N/A  WCI   7
EDMONTON       MOCLDY    30  18  59 SW6       29.53S WCI  24
FORT MCMURRAY  MOCLDY    27  16  63 SW8       29.43S WCI  18
HIGH LEVEL     CLOUDY    23  16  74 N7        29.47S WCI  15
LETHBRIDGE     BLWGSNOW  19  14  79 W41G52    29.67S VSB 1/2 WCI  -2
LLOYDMINSTER   MOCLDY    12   7  79 SW12      29.56F WCI  -2
MEDICINE HAT   PTCLDY    21  12  68 S22G32    29.69F WCI   5
MILK RIVER       N/A     16  10  79 SW16        N/A  WCI   0
ONEFOUR          N/A      0  -4  85 E12         N/A  WCI -18
PEACE RIVER    MOCLDY    32  18  55 W12G17    29.44S WCI  23
PINCHER CREEK  SNOW      18  10  73 W44G59    29.71R VSB 3/8 WCI  -5
WATERTON GATE    N/A     18   7  62 SW35G46     N/A  WCI  -3
$$

REGIONAL REPORTS...SASKATCHEWAN

CITY           SKY/WX    TMP DP  RH WIND       PRES   REMARKS
CORONACH         N/A      3  -2  78 S13         N/A  WCI -14
CYPRESS HILLS    N/A     -2  -6  84 S6          N/A  WCI -14
ESTEVAN        PTCLDY     3   0  85 S9        30.03F WCI -11
MOOSE JAW        N/A     12   3  67 S17G24      N/A  WCI  -5
PRINCE ALBERT  PTCLDY    14   7  73 S10       29.75F WCI   1
REGINA         CLEAR     10   5  79 S16       29.90F WCI  -7
ROCKGLEN         N/A      3  -4  72 S13         N/A  WCI -14
SASKATOON      PTCLDY    16   7  67 S17       29.75F WCI   0
VAL MARIE        N/A     -4  -9  77 S3          N/A
$$




USA.gov is the U.S. government's official web portal to all federal, state and local government web resources and services.